PRIVATE WETTERSTATION BILLIGHEIM-ALLFELD                       ZURCK
Wetterdaten: Samstag, 14.01.2017
Datum Zeit Temp. A. Temp. A. min Temp. A. max Feuchte A. Luftdruck Regen Wind Richtung Richtung Sonnenschein ET Solar Taupunkt Windchill Windben Empfang
14.01.2017 00:00 -0,3 C -0,3 C -0,3 C 86 % 1004,9 hPa 0,0 l/m 9,7 km/h (2 Bft) SW 225 0 min 0,000 mm 0 W/m -2,3 C -3,5 C 22,5 km/h (4 Bft) 100 %
14.01.2017 00:10 -0,2 C -0,3 C -0,2 C 88 % 1004,8 hPa 0,0 l/m 11,3 km/h (2 Bft) SW 225 0 min 0,000 mm 0 W/m -1,9 C -4,7 C 25,7 km/h (4 Bft) 100 %
14.01.2017 00:20 -0,2 C -0,3 C -0,2 C 89 % 1004,8 hPa 0,0 l/m 14,5 km/h (3 Bft) SW 225 0 min 0,000 mm 0 W/m -1,8 C -6,9 C 30,6 km/h (5 Bft) 100 %
14.01.2017 00:30 -0,3 C -0,3 C -0,2 C 90 % 1004,7 hPa 0,0 l/m 12,9 km/h (3 Bft) SW 225 0 min 0,000 mm 0 W/m -1,7 C -6,0 C 33,8 km/h (5 Bft) 100 %
14.01.2017 00:40 -0,3 C -0,3 C -0,3 C 91 % 1004,9 hPa 0,0 l/m 9,7 km/h (2 Bft) SW 225 0 min 0,000 mm 0 W/m -1,6 C -3,5 C 20,9 km/h (4 Bft) 100 %
14.01.2017 00:50 -0,3 C -0,3 C -0,3 C 91 % 1004,8 hPa 0,0 l/m 12,9 km/h (3 Bft) SW 225 0 min 0,000 mm 0 W/m -1,6 C -6,0 C 25,7 km/h (4 Bft) 100 %
14.01.2017 01:00 -0,4 C -0,4 C -0,3 C 91 % 1004,9 hPa 0,0 l/m 11,3 km/h (2 Bft) SW 225 0 min 0,000 mm 0 W/m -1,7 C -4,9 C 25,7 km/h (4 Bft) 99 %
14.01.2017 01:10 -0,5 C -0,5 C -0,4 C 92 % 1004,9 hPa 0,0 l/m 11,3 km/h (2 Bft) S-SW 202 0 min 0,000 mm 0 W/m -1,6 C -5,1 C 24,1 km/h (4 Bft) 100 %
14.01.2017 01:20 -0,6 C -0,6 C -0,5 C 92 % 1004,8 hPa 0,0 l/m 9,7 km/h (2 Bft) SW 225 0 min 0,000 mm 0 W/m -1,7 C -3,9 C 22,5 km/h (4 Bft) 100 %
14.01.2017 01:30 -0,6 C -0,6 C -0,6 C 92 % 1005,0 hPa 0,2 l/m 8,0 km/h (2 Bft) SW 225 0 min 0,000 mm 0 W/m -1,7 C -2,3 C 19,3 km/h (3 Bft) 100 %
14.01.2017 01:40 -0,6 C -0,6 C -0,6 C 92 % 1004,9 hPa 0,0 l/m 8,0 km/h (2 Bft) SW 225 0 min 0,000 mm 0 W/m -1,7 C -2,3 C 20,9 km/h (4 Bft) 100 %
14.01.2017 01:50 -0,6 C -0,6 C -0,6 C 92 % 1005,0 hPa 0,0 l/m 6,4 km/h (2 Bft) SW 225 0 min 0,000 mm 0 W/m -1,7 C -0,6 C 19,3 km/h (3 Bft) 100 %
14.01.2017 02:00 -0,5 C -0,6 C -0,5 C 92 % 1004,9 hPa 0,0 l/m 6,4 km/h (2 Bft) SW 225 0 min 0,000 mm 0 W/m -1,6 C -0,5 C 19,3 km/h (3 Bft) 100 %
14.01.2017 02:10 -0,4 C -0,5 C -0,4 C 92 % 1005,0 hPa 0,0 l/m 6,4 km/h (2 Bft) W-SW 247 0 min 0,000 mm 0 W/m -1,5 C -0,4 C 16,1 km/h (3 Bft) 100 %
14.01.2017 02:20 -0,3 C -0,4 C -0,3 C 92 % 1005,0 hPa 0,0 l/m 8,0 km/h (2 Bft) SW 225 0 min 0,000 mm 0 W/m -1,4 C -2,0 C 19,3 km/h (3 Bft) 100 %
14.01.2017 02:30 -0,3 C -0,4 C -0,3 C 92 % 1005,1 hPa 0,0 l/m 4,8 km/h (1 Bft) SW 225 0 min 0,000 mm 0 W/m -1,4 C -0,3 C 17,7 km/h (3 Bft) 99 %
14.01.2017 02:40 -0,2 C -0,3 C -0,2 C 92 % 1005,4 hPa 0,0 l/m 4,8 km/h (1 Bft) W-SW 247 0 min 0,000 mm 0 W/m -1,3 C -0,2 C 16,1 km/h (3 Bft) 100 %
14.01.2017 02:50 -0,2 C -0,2 C -0,2 C 92 % 1005,5 hPa 0,0 l/m 4,8 km/h (1 Bft) W 270 0 min 0,000 mm 0 W/m -1,3 C -0,2 C 11,3 km/h (2 Bft) 100 %
14.01.2017 03:00 -0,2 C -0,2 C -0,2 C 92 % 1005,6 hPa 0,0 l/m 4,8 km/h (1 Bft) W 270 0 min 0,000 mm 0 W/m -1,3 C -0,2 C 14,5 km/h (3 Bft) 100 %
14.01.2017 03:10 -0,1 C -0,2 C -0,1 C 92 % 1005,7 hPa 0,0 l/m 6,4 km/h (2 Bft) W-SW 247 0 min 0,000 mm 0 W/m -1,2 C -0,1 C 17,7 km/h (3 Bft) 100 %
14.01.2017 03:20 -0,1 C -0,1 C -0,1 C 92 % 1005,7 hPa 0,2 l/m 4,8 km/h (1 Bft) W-SW 247 0 min 0,000 mm 0 W/m -1,2 C -0,1 C 16,1 km/h (3 Bft) 99 %
14.01.2017 03:30 -0,1 C -0,1 C -0,1 C 92 % 1005,7 hPa 0,0 l/m 6,4 km/h (2 Bft) W-SW 247 0 min 0,000 mm 0 W/m -1,2 C -0,1 C 17,7 km/h (3 Bft) 99 %
14.01.2017 03:40 0,1 C -0,1 C 0,1 C 92 % 1005,9 hPa 0,0 l/m 8,0 km/h (2 Bft) W 270 0 min 0,000 mm 0 W/m -1,0 C -1,5 C 27,4 km/h (4 Bft) 88 %
14.01.2017 03:50 0,2 C 0,1 C 0,2 C 92 % 1006,0 hPa 0,0 l/m 9,7 km/h (2 Bft) W-SW 247 0 min 0,000 mm 0 W/m -0,9 C -3,0 C 20,9 km/h (4 Bft) 98 %
14.01.2017 04:00 0,2 C 0,1 C 0,2 C 92 % 1006,0 hPa 0,2 l/m 9,7 km/h (2 Bft) W 270 0 min 0,000 mm 0 W/m -0,9 C -3,0 C 22,5 km/h (4 Bft) 98 %
14.01.2017 04:10 0,3 C 0,2 C 0,3 C 92 % 1006,1 hPa 0,0 l/m 11,3 km/h (2 Bft) W 270 0 min 0,000 mm 0 W/m -0,8 C -4,1 C 27,4 km/h (4 Bft) 96 %
14.01.2017 04:20 0,3 C 0,2 C 0,3 C 92 % 1006,5 hPa 0,0 l/m 9,7 km/h (2 Bft) W 270 0 min 0,000 mm 0 W/m -0,8 C -2,9 C 25,7 km/h (4 Bft) 97 %
14.01.2017 04:30 0,3 C 0,3 C 0,3 C 92 % 1006,4 hPa 0,0 l/m 9,7 km/h (2 Bft) W 270 0 min 0,000 mm 0 W/m -0,8 C -2,9 C 20,9 km/h (4 Bft) 97 %
14.01.2017 04:40 0,4 C 0,3 C 0,4 C 92 % 1006,4 hPa 0,0 l/m 9,7 km/h (2 Bft) W 270 0 min 0,000 mm 0 W/m -0,7 C -2,8 C 17,7 km/h (3 Bft) 98 %
14.01.2017 04:50 0,5 C 0,4 C 0,5 C 92 % 1006,4 hPa 0,0 l/m 11,3 km/h (2 Bft) W 270 0 min 0,000 mm 0 W/m -0,6 C -3,9 C 22,5 km/h (4 Bft) 97 %
14.01.2017 05:00 0,6 C 0,5 C 0,6 C 92 % 1006,4 hPa 0,0 l/m 9,7 km/h (2 Bft) W 270 0 min 0,000 mm 0 W/m -0,5 C -2,5 C 25,7 km/h (4 Bft) 98 %
14.01.2017 05:10 0,6 C 0,6 C 0,6 C 92 % 1006,6 hPa 0,0 l/m 9,7 km/h (2 Bft) W 270 0 min 0,000 mm 0 W/m -0,5 C -2,5 C 20,9 km/h (4 Bft) 97 %
14.01.2017 05:20 0,7 C 0,6 C 0,7 C 92 % 1006,8 hPa 0,0 l/m 12,9 km/h (3 Bft) W 270 0 min 0,000 mm 0 W/m -0,4 C -4,8 C 29,0 km/h (5 Bft) 98 %
14.01.2017 05:30 0,7 C 0,7 C 0,7 C 92 % 1006,9 hPa 0,0 l/m 11,3 km/h (2 Bft) W 270 0 min 0,000 mm 0 W/m -0,4 C -3,7 C 25,7 km/h (4 Bft) 98 %
14.01.2017 05:40 0,8 C 0,7 C 0,8 C 92 % 1007,0 hPa 0,0 l/m 11,3 km/h (2 Bft) W-NW 292 0 min 0,000 mm 0 W/m -0,3 C -3,6 C 22,5 km/h (4 Bft) 97 %
14.01.2017 05:50 0,8 C 0,7 C 0,8 C 92 % 1007,0 hPa 0,0 l/m 11,3 km/h (2 Bft) W 270 0 min 0,000 mm 0 W/m -0,3 C -3,6 C 22,5 km/h (4 Bft) 98 %
14.01.2017 06:00 0,8 C 0,8 C 0,8 C 92 % 1007,2 hPa 0,0 l/m 11,3 km/h (2 Bft) W-NW 292 0 min 0,000 mm 0 W/m -0,3 C -3,6 C 25,7 km/h (4 Bft) 97 %
14.01.2017 06:10 0,8 C 0,8 C 0,8 C 92 % 1007,3 hPa 0,0 l/m 9,7 km/h (2 Bft) W 270 0 min 0,000 mm 0 W/m -0,3 C -2,3 C 22,5 km/h (4 Bft) 98 %
14.01.2017 06:20 0,8 C 0,7 C 0,8 C 92 % 1007,5 hPa 0,0 l/m 11,3 km/h (2 Bft) W 270 0 min 0,000 mm 0 W/m -0,3 C -3,6 C 27,4 km/h (4 Bft) 97 %
14.01.2017 06:30 0,8 C 0,7 C 0,8 C 93 % 1007,6 hPa 0,0 l/m 12,9 km/h (3 Bft) W 270 0 min 0,000 mm 0 W/m -0,2 C -4,7 C 22,5 km/h (4 Bft) 98 %
14.01.2017 06:40 0,8 C 0,8 C 0,8 C 92 % 1007,8 hPa 0,0 l/m 11,3 km/h (2 Bft) W 270 0 min 0,000 mm 0 W/m -0,3 C -3,6 C 22,5 km/h (4 Bft) 98 %
14.01.2017 06:50 0,9 C 0,8 C 0,9 C 92 % 1007,9 hPa 0,0 l/m 9,7 km/h (2 Bft) W 270 0 min 0,000 mm 0 W/m -0,2 C -2,2 C 22,5 km/h (4 Bft) 97 %
14.01.2017 07:00 0,9 C 0,9 C 0,9 C 92 % 1008,0 hPa 0,0 l/m 9,7 km/h (2 Bft) W 270 0 min 0,000 mm 0 W/m -0,2 C -2,2 C 24,1 km/h (4 Bft) 98 %
14.01.2017 07:10 0,9 C 0,9 C 0,9 C 92 % 1008,2 hPa 0,0 l/m 8,0 km/h (2 Bft) W 270 0 min 0,000 mm 0 W/m -0,2 C -0,7 C 19,3 km/h (3 Bft) 97 %
14.01.2017 07:20 0,8 C 0,8 C 0,9 C 92 % 1008,4 hPa 0,0 l/m 6,4 km/h (2 Bft) W-SW 247 0 min 0,000 mm 0 W/m -0,3 C 0,8 C 19,3 km/h (3 Bft) 98 %
14.01.2017 07:30 0,8 C 0,8 C 0,8 C 92 % 1008,6 hPa 0,0 l/m 8,0 km/h (2 Bft) W-SW 247 0 min 0,000 mm 0 W/m -0,3 C -0,8 C 22,5 km/h (4 Bft) 98 %
14.01.2017 07:40 0,8 C 0,7 C 0,8 C 92 % 1008,6 hPa 0,0 l/m 6,4 km/h (2 Bft) W 270 0 min 0,000 mm 0 W/m -0,3 C 0,8 C 14,5 km/h (3 Bft) 98 %
14.01.2017 07:50 0,7 C 0,7 C 0,7 C 91 % 1008,9 hPa 0,0 l/m 6,4 km/h (2 Bft) W 270 0 min 0,000 mm 0 W/m -0,6 C 0,7 C 19,3 km/h (3 Bft) 98 %
14.01.2017 08:00 0,7 C 0,7 C 0,7 C 91 % 1009,2 hPa 0,0 l/m 8,0 km/h (2 Bft) W 270 0 min 0,000 mm 0 W/m -0,6 C -0,9 C 19,3 km/h (3 Bft) 88 %
14.01.2017 08:10 0,8 C 0,7 C 0,8 C 90 % 1009,4 hPa 0,0 l/m 11,3 km/h (2 Bft) W-NW 292 0 min 0,000 mm 0 W/m -0,6 C -3,6 C 24,1 km/h (4 Bft) 98 %
14.01.2017 08:20 0,8 C 0,8 C 0,8 C 89 % 1009,5 hPa 0,0 l/m 12,9 km/h (3 Bft) W-NW 292 0 min 0,000 mm 0 W/m -0,8 C -4,7 C 27,4 km/h (4 Bft) 97 %
14.01.2017 08:30 0,9 C 0,8 C 0,9 C 88 % 1009,5 hPa 0,0 l/m 14,5 km/h (3 Bft) W-NW 292 0 min 0,000 mm 7 W/m -0,9 C -5,6 C 27,4 km/h (4 Bft) 98 %
14.01.2017 08:40 0,9 C 0,9 C 0,9 C 88 % 1009,6 hPa 0,0 l/m 11,3 km/h (2 Bft) W-NW 292 0 min 0,000 mm 14 W/m -0,9 C -3,5 C 24,1 km/h (4 Bft) 98 %
14.01.2017 08:50 0,9 C 0,9 C 0,9 C 88 % 1009,8 hPa 0,0 l/m 12,9 km/h (3 Bft) W 270 0 min 0,000 mm 19 W/m -0,9 C -4,6 C 30,6 km/h (5 Bft) 98 %
14.01.2017 09:00 0,8 C 0,8 C 0,9 C 88 % 1009,8 hPa 0,0 l/m 9,7 km/h (2 Bft) W 270 0 min 0,025 mm 25 W/m -1,0 C -2,3 C 24,1 km/h (4 Bft) 98 %
14.01.2017 09:10 0,9 C 0,8 C 0,9 C 88 % 1009,9 hPa 0,0 l/m 8,0 km/h (2 Bft) W-NW 292 0 min 0,000 mm 32 W/m -0,9 C -0,7 C 22,5 km/h (4 Bft) 97 %
14.01.2017 09:20 0,8 C 0,8 C 0,9 C 88 % 1010,2 hPa 0,0 l/m 8,0 km/h (2 Bft) W 270 0 min 0,000 mm 33 W/m -1,0 C -0,8 C 19,3 km/h (3 Bft) 98 %
14.01.2017 09:30 0,8 C 0,8 C 0,8 C 88 % 1010,4 hPa 0,0 l/m 6,4 km/h (2 Bft) W-NW 292 0 min 0,000 mm 32 W/m -1,0 C 0,8 C 16,1 km/h (3 Bft) 97 %
14.01.2017 09:40 0,9 C 0,8 C 0,9 C 88 % 1010,5 hPa 0,0 l/m 4,8 km/h (1 Bft) W-NW 292 0 min 0,000 mm 28 W/m -0,9 C 0,9 C 16,1 km/h (3 Bft) 98 %
14.01.2017 09:50 1,1 C 0,9 C 1,1 C 87 % 1010,7 hPa 0,0 l/m 6,4 km/h (2 Bft) W-NW 292 0 min 0,000 mm 69 W/m -0,8 C 1,1 C 19,3 km/h (3 Bft) 97 %
14.01.2017 10:00 1,2 C 1,1 C 1,2 C 86 % 1010,7 hPa 0,0 l/m 9,7 km/h (2 Bft) W-NW 292 0 min 0,025 mm 95 W/m -0,9 C -1,9 C 20,9 km/h (4 Bft) 98 %
14.01.2017 10:10 1,3 C 1,2 C 1,3 C 85 % 1011,1 hPa 0,0 l/m 9,7 km/h (2 Bft) W-NW 292 0 min 0,000 mm 86 W/m -0,9 C -1,8 C 27,4 km/h (4 Bft) 98 %
14.01.2017 10:20 1,3 C 1,3 C 1,3 C 84 % 1011,2 hPa 0,0 l/m 9,7 km/h (2 Bft) NW 315 0 min 0,000 mm 84 W/m -1,1 C -1,8 C 22,5 km/h (4 Bft) 98 %
14.01.2017 10:30 1,3 C 1,3 C 1,3 C 84 % 1011,4 hPa 0,0 l/m 9,7 km/h (2 Bft) W-NW 292 0 min 0,000 mm 93 W/m -1,1 C -1,8 C 19,3 km/h (3 Bft) 98 %
14.01.2017 10:40 1,4 C 1,3 C 1,4 C 84 % 1011,6 hPa 0,0 l/m 6,4 km/h (2 Bft) W-NW 292 10 min 0,000 mm 158 W/m -1,0 C 1,4 C 17,7 km/h (3 Bft) 97 %
14.01.2017 10:50 1,4 C 1,4 C 1,4 C 83 % 1011,7 hPa 0,0 l/m 8,0 km/h (2 Bft) W-NW 292 0 min 0,000 mm 95 W/m -1,2 C -0,2 C 19,3 km/h (3 Bft) 98 %
14.01.2017 11:00 1,4 C 1,4 C 1,4 C 84 % 1011,8 hPa 0,0 l/m 8,0 km/h (2 Bft) W-NW 292 0 min 0,051 mm 70 W/m -1,0 C -0,2 C 19,3 km/h (3 Bft) 98 %
14.01.2017 11:10 1,4 C 1,4 C 1,4 C 83 % 1011,9 hPa 0,0 l/m 9,7 km/h (2 Bft) W-NW 292 0 min 0,000 mm 67 W/m -1,2 C -1,7 C 24,1 km/h (4 Bft) 97 %
14.01.2017 11:20 1,4 C 1,4 C 1,4 C 82 % 1012,1 hPa 0,0 l/m 9,7 km/h (2 Bft) W-NW 292 0 min 0,000 mm 67 W/m -1,3 C -1,7 C 27,4 km/h (4 Bft) 98 %
14.01.2017 11:30 1,4 C 1,4 C 1,4 C 82 % 1012,1 hPa 0,0 l/m 11,3 km/h (2 Bft) W-NW 292 0 min 0,000 mm 111 W/m -1,3 C -2,9 C 25,7 km/h (4 Bft) 98 %
14.01.2017 11:40 1,6 C 1,4 C 1,6 C 82 % 1012,3 hPa 0,0 l/m 9,7 km/h (2 Bft) W-NW 292 10 min 0,000 mm 165 W/m -1,1 C -1,4 C 19,3 km/h (3 Bft) 99 %
14.01.2017 11:50 1,6 C 1,6 C 1,6 C 82 % 1012,3 hPa 0,0 l/m 11,3 km/h (2 Bft) W-NW 292 0 min 0,000 mm 142 W/m -1,1 C -2,7 C 22,5 km/h (4 Bft) 99 %
14.01.2017 12:00 1,4 C 1,4 C 1,6 C 82 % 1012,4 hPa 0,0 l/m 9,7 km/h (2 Bft) W-NW 292 0 min 0,051 mm 109 W/m -1,3 C -1,7 C 24,1 km/h (4 Bft) 100 %
14.01.2017 12:10 1,4 C 1,4 C 1,4 C 83 % 1012,4 hPa 0,0 l/m 9,7 km/h (2 Bft) W-NW 292 0 min 0,000 mm 148 W/m -1,2 C -1,7 C 20,9 km/h (4 Bft) 100 %
14.01.2017 12:20 1,4 C 1,4 C 1,4 C 83 % 1012,3 hPa 0,0 l/m 8,0 km/h (2 Bft) W-NW 292 0 min 0,000 mm 141 W/m -1,2 C -0,2 C 20,9 km/h (4 Bft) 100 %
14.01.2017 12:30 1,5 C 1,4 C 1,6 C 83 % 1012,6 hPa 0,0 l/m 9,7 km/h (2 Bft) W-NW 292 0 min 0,000 mm 135 W/m -1,1 C -1,6 C 24,1 km/h (4 Bft) 100 %
14.01.2017 12:40 1,5 C 1,5 C 1,6 C 83 % 1012,5 hPa 0,0 l/m 9,7 km/h (2 Bft) W-NW 292 0 min 0,000 mm 144 W/m -1,1 C -1,6 C 22,5 km/h (4 Bft) 100 %
14.01.2017 12:50 1,6 C 1,5 C 1,6 C 85 % 1012,6 hPa 0,0 l/m 8,0 km/h (2 Bft) W-SW 247 0 min 0,000 mm 105 W/m -0,6 C 0,0 C 19,3 km/h (3 Bft) 100 %
14.01.2017 13:00 1,8 C 1,5 C 1,8 C 86 % 1012,6 hPa 0,0 l/m 8,0 km/h (2 Bft) W-NW 292 10 min 0,051 mm 380 W/m -0,3 C 0,2 C 20,9 km/h (4 Bft) 100 %
14.01.2017 13:10 2,3 C 1,8 C 2,3 C 83 % 1012,6 hPa 0,2 l/m 11,3 km/h (2 Bft) W-NW 292 10 min 0,000 mm 394 W/m -0,3 C -1,9 C 25,7 km/h (4 Bft) 100 %
14.01.2017 13:20 2,5 C 2,3 C 2,5 C 81 % 1012,5 hPa 0,0 l/m 11,3 km/h (2 Bft) W-NW 292 10 min 0,000 mm 387 W/m -0,4 C -1,6 C 25,7 km/h (4 Bft) 100 %
14.01.2017 13:30 1,9 C 1,9 C 2,4 C 84 % 1012,7 hPa 0,2 l/m 12,9 km/h (3 Bft) W-NW 292 0 min 0,000 mm 139 W/m -0,5 C -3,4 C 29,0 km/h (5 Bft) 100 %
14.01.2017 13:40 1,2 C 1,2 C 1,9 C 88 % 1012,9 hPa 0,0 l/m 11,3 km/h (2 Bft) W-NW 292 0 min 0,000 mm 76 W/m -0,6 C -3,1 C 25,7 km/h (4 Bft) 100 %
14.01.2017 13:50 0,9 C 0,9 C 1,2 C 90 % 1012,9 hPa 0,0 l/m 8,0 km/h (2 Bft) NW 315 0 min 0,000 mm 142 W/m -0,6 C -0,7 C 19,3 km/h (3 Bft) 100 %
14.01.2017 14:00 0,9 C 0,9 C 0,9 C 90 % 1012,9 hPa 0,2 l/m 6,4 km/h (2 Bft) NW 315 10 min 0,076 mm 209 W/m -0,6 C 0,9 C 16,1 km/h (3 Bft) 100 %
14.01.2017 14:10 1,2 C 0,9 C 1,2 C 90 % 1012,9 hPa 0,0 l/m 3,2 km/h (1 Bft) W-NW 292 0 min 0,000 mm 146 W/m -0,3 C 1,2 C 14,5 km/h (3 Bft) 100 %
14.01.2017 14:20 1,6 C 1,2 C 1,6 C 89 % 1013,0 hPa 0,2 l/m 4,8 km/h (1 Bft) W-NW 292 10 min 0,000 mm 232 W/m -0,0 C 1,6 C 14,5 km/h (3 Bft) 100 %
14.01.2017 14:40 1,3 C 1,2 C 1,6 C 88 % 1013,2 hPa 0,4 l/m 9,2 km/h (2 Bft) W 264 0 min 0,000 mm 47 W/m -0,5 C -1,4 C 22,5 km/h (4 Bft) 87 %
14.01.2017 14:50 1,0 C 1,0 C 1,3 C 89 % 1013,4 hPa 0,2 l/m 6,4 km/h (2 Bft) W-NW 296 0 min 0,000 mm 21 W/m -0,6 C 1,0 C 16,1 km/h (3 Bft) 100 %
14.01.2017 15:00 0,6 C 0,6 C 1,0 C 90 % 1013,3 hPa 0,0 l/m 5,3 km/h (1 Bft) NW 308 0 min 0,026 mm 25 W/m -0,8 C 0,6 C 14,5 km/h (3 Bft) 100 %
14.01.2017 15:10 0,3 C 0,3 C 0,6 C 91 % 1013,3 hPa 0,0 l/m 4,0 km/h (1 Bft) W-NW 284 0 min 0,000 mm 26 W/m -1,0 C 0,3 C 9,7 km/h (2 Bft) 100 %
14.01.2017 15:20 0,2 C 0,2 C 0,3 C 91 % 1013,3 hPa 0,0 l/m 0,9 km/h (0 Bft) W-NW 296 0 min 0,000 mm 23 W/m -1,1 C 0,2 C 9,7 km/h (2 Bft) 100 %
14.01.2017 15:30 0,1 C 0,1 C 0,2 C 90 % 1013,4 hPa 0,0 l/m 6,3 km/h (2 Bft) W-NW 297 0 min 0,000 mm 23 W/m -1,3 C 0,1 C 19,3 km/h (3 Bft) 92 %
14.01.2017 15:40 0,3 C 0,1 C 0,3 C 89 % 1013,5 hPa 0,0 l/m 5,9 km/h (2 Bft) W 267 0 min 0,000 mm 30 W/m -1,3 C 0,3 C 16,1 km/h (3 Bft) 100 %
14.01.2017 15:50 0,6 C 0,3 C 0,6 C 86 % 1013,5 hPa 0,0 l/m 6,4 km/h (2 Bft) W-NW 301 0 min 0,000 mm 35 W/m -1,5 C 0,6 C 17,7 km/h (3 Bft) 100 %
14.01.2017 16:00 0,7 C 0,6 C 0,8 C 86 % 1013,6 hPa 0,0 l/m 3,6 km/h (1 Bft) W 266 0 min 0,025 mm 39 W/m -1,4 C 0,7 C 9,7 km/h (2 Bft) 100 %
14.01.2017 16:10 0,9 C 0,7 C 0,9 C 85 % 1013,8 hPa 0,0 l/m 2,9 km/h (1 Bft) W 261 0 min 0,000 mm 25 W/m -1,3 C 0,9 C 14,5 km/h (3 Bft) 91 %
14.01.2017 16:20 0,8 C 0,8 C 0,9 C 85 % 1014,1 hPa 0,0 l/m 1,0 km/h (0 Bft) W 265 0 min 0,000 mm 19 W/m -1,4 C 0,8 C 6,4 km/h (2 Bft) 100 %
14.01.2017 16:30 0,7 C 0,7 C 0,8 C 86 % 1014,1 hPa 0,0 l/m 1,9 km/h (1 Bft) SW 221 0 min 0,000 mm 9 W/m -1,4 C 0,7 C 8,0 km/h (2 Bft) 100 %
14.01.2017 16:40 0,6 C 0,6 C 0,7 C 87 % 1014,2 hPa 0,0 l/m 1,0 km/h (0 Bft) W 261 0 min 0,000 mm 0 W/m -1,3 C 0,6 C 8,0 km/h (2 Bft) 99 %
14.01.2017 16:50 0,6 C 0,6 C 0,6 C 87 % 1014,3 hPa 0,0 l/m 1,8 km/h (1 Bft) W-SW 239 0 min 0,000 mm 0 W/m -1,3 C 0,6 C 8,0 km/h (2 Bft) 100 %
14.01.2017 17:00 0,7 C 0,6 C 0,7 C 87 % 1014,2 hPa 0,0 l/m 4,9 km/h (1 Bft) SW 220 0 min 0,000 mm 0 W/m -1,2 C 0,7 C 14,5 km/h (3 Bft) 91 %
14.01.2017 17:10 0,7 C 0,6 C 0,7 C 88 % 1014,3 hPa 0,0 l/m 5,0 km/h (1 Bft) SW 216 0 min 0,000 mm 0 W/m -1,1 C 0,7 C 14,5 km/h (3 Bft) 100 %
14.01.2017 17:20 0,7 C 0,6 C 0,7 C 88 % 1014,3 hPa 0,0 l/m 5,1 km/h (1 Bft) SW 232 0 min 0,000 mm 0 W/m -1,1 C 0,7 C 12,9 km/h (3 Bft) 100 %
14.01.2017 17:30 0,6 C 0,6 C 0,7 C 87 % 1014,4 hPa 0,0 l/m 6,4 km/h (2 Bft) SW 229 0 min 0,000 mm 0 W/m -1,3 C 0,6 C 16,1 km/h (3 Bft) 100 %
14.01.2017 17:40 0,6 C 0,6 C 0,7 C 87 % 1014,3 hPa 0,0 l/m 6,2 km/h (2 Bft) W 275 0 min 0,000 mm 0 W/m -1,3 C 0,6 C 16,1 km/h (3 Bft) 92 %
14.01.2017 17:50 0,6 C 0,6 C 0,6 C 86 % 1014,3 hPa 0,0 l/m 7,9 km/h (2 Bft) W-SW 249 0 min 0,000 mm 0 W/m -1,5 C -0,9 C 19,3 km/h (3 Bft) 100 %
14.01.2017 18:00 0,5 C 0,5 C 0,6 C 85 % 1014,5 hPa 0,0 l/m 8,5 km/h (2 Bft) W 273 0 min 0,000 mm 0 W/m -1,7 C -1,6 C 17,7 km/h (3 Bft) 100 %
14.01.2017 18:10 0,5 C 0,5 C 0,5 C 85 % 1014,5 hPa 0,0 l/m 10,1 km/h (2 Bft) W 263 0 min 0,000 mm 0 W/m -1,7 C -3,0 C 20,9 km/h (4 Bft) 100 %
14.01.2017 18:20 0,5 C 0,5 C 0,5 C 85 % 1014,5 hPa 0,0 l/m 9,7 km/h (2 Bft) W 263 0 min 0,000 mm 0 W/m -1,7 C -2,6 C 24,1 km/h (4 Bft) 100 %
14.01.2017 18:30 0,4 C 0,4 C 0,5 C 85 % 1014,5 hPa 0,0 l/m 10,9 km/h (2 Bft) W 259 0 min 0,000 mm 0 W/m -1,8 C -3,7 C 27,4 km/h (4 Bft) 100 %
14.01.2017 18:40 0,4 C 0,4 C 0,4 C 84 % 1014,5 hPa 0,0 l/m 10,2 km/h (2 Bft) SW 233 0 min 0,000 mm 0 W/m -2,0 C -3,2 C 22,5 km/h (4 Bft) 100 %
14.01.2017 18:50 0,4 C 0,4 C 0,4 C 85 % 1014,5 hPa 0,0 l/m 12,6 km/h (3 Bft) W-NW 286 0 min 0,000 mm 0 W/m -1,8 C -5,0 C 24,1 km/h (4 Bft) 100 %
14.01.2017 19:00 0,3 C 0,3 C 0,4 C 85 % 1014,6 hPa 0,0 l/m 9,0 km/h (2 Bft) W-SW 246 0 min 0,026 mm 0 W/m -1,9 C -2,3 C 22,5 km/h (4 Bft) 100 %
14.01.2017 19:10 0,2 C 0,2 C 0,3 C 86 % 1014,7 hPa 0,0 l/m 9,8 km/h (2 Bft) W-SW 254 0 min 0,000 mm 0 W/m -1,9 C -3,1 C 24,1 km/h (4 Bft) 100 %
14.01.2017 19:20 0,1 C 0,1 C 0,2 C 87 % 1014,8 hPa 0,0 l/m 9,9 km/h (2 Bft) W-SW 255 0 min 0,000 mm 0 W/m -1,8 C -3,3 C 25,7 km/h (4 Bft) 100 %
14.01.2017 19:30 -0,1 C -0,1 C 0,1 C 87 % 1014,8 hPa 0,0 l/m 8,9 km/h (2 Bft) W 261 0 min 0,000 mm 0 W/m -2,0 C -2,6 C 25,7 km/h (4 Bft) 99 %
14.01.2017 19:40 -0,1 C -0,1 C 0,0 C 87 % 1014,8 hPa 0,0 l/m 9,7 km/h (2 Bft) W-SW 240 0 min 0,000 mm 0 W/m -2,0 C -3,3 C 25,7 km/h (4 Bft) 100 %
14.01.2017 19:50 -0,1 C -0,1 C -0,1 C 87 % 1014,7 hPa 0,0 l/m 9,8 km/h (2 Bft) S-SW 213 0 min 0,000 mm 0 W/m -2,0 C -3,4 C 25,7 km/h (4 Bft) 100 %
14.01.2017 20:00 0,0 C -0,1 C 0,0 C 87 % 1014,7 hPa 0,0 l/m 9,1 km/h (2 Bft) SW 232 0 min 0,000 mm 0 W/m -1,9 C -2,7 C 20,9 km/h (4 Bft) 100 %
14.01.2017 20:10 0,0 C -0,1 C 0,0 C 88 % 1014,7 hPa 0,0 l/m 9,7 km/h (2 Bft) W 269 0 min 0,000 mm 0 W/m -1,7 C -3,2 C 22,5 km/h (4 Bft) 99 %
14.01.2017 20:20 0,0 C 0,0 C 0,0 C 89 % 1014,8 hPa 0,1 l/m 13,2 km/h (3 Bft) W-SW 242 0 min 0,000 mm 0 W/m -1,6 C -5,8 C 29,0 km/h (5 Bft) 91 %
14.01.2017 20:30 -0,2 C -0,2 C 0,0 C 90 % 1014,7 hPa 0,1 l/m 11,0 km/h (2 Bft) SW 226 0 min 0,000 mm 0 W/m -1,6 C -4,5 C 29,0 km/h (5 Bft) 100 %
14.01.2017 20:40 -0,3 C -0,3 C -0,2 C 91 % 1014,7 hPa 0,1 l/m 11,2 km/h (2 Bft) SW 228 0 min 0,000 mm 0 W/m -1,6 C -4,7 C 24,1 km/h (4 Bft) 100 %
14.01.2017 20:50 -0,4 C -0,4 C -0,3 C 91 % 1014,7 hPa 0,1 l/m 10,6 km/h (2 Bft) W 262 0 min 0,000 mm 0 W/m -1,7 C -4,4 C 25,7 km/h (4 Bft) 100 %
14.01.2017 21:00 -0,5 C -0,6 C -0,4 C 92 % 1014,6 hPa 0,2 l/m 13,2 km/h (3 Bft) W 259 0 min 0,000 mm 0 W/m -1,6 C -6,4 C 25,7 km/h (4 Bft) 100 %
14.01.2017 21:10 -0,6 C -0,6 C -0,6 C 92 % 1014,7 hPa 0,2 l/m 14,5 km/h (3 Bft) SW 225 0 min 0,000 mm 0 W/m -1,7 C -7,4 C 27,4 km/h (4 Bft) 100 %
14.01.2017 21:20 -0,7 C -0,7 C -0,6 C 92 % 1014,6 hPa 0,4 l/m 11,3 km/h (2 Bft) SW 225 0 min 0,000 mm 0 W/m -1,8 C -5,3 C 27,4 km/h (4 Bft) 100 %
14.01.2017 21:30 -0,8 C -0,8 C -0,7 C 92 % 1014,6 hPa 0,4 l/m 9,7 km/h (2 Bft) SW 225 0 min 0,000 mm 0 W/m -1,9 C -4,1 C 25,7 km/h (4 Bft) 100 %
14.01.2017 21:40 -0,8 C -0,8 C -0,8 C 92 % 1014,6 hPa 0,2 l/m 9,7 km/h (2 Bft) SW 225 0 min 0,000 mm 0 W/m -1,9 C -4,1 C 22,5 km/h (4 Bft) 100 %
14.01.2017 21:50 -0,8 C -0,8 C -0,8 C 92 % 1014,8 hPa 0,2 l/m 11,3 km/h (2 Bft) W-SW 247 0 min 0,000 mm 0 W/m -1,9 C -5,4 C 25,7 km/h (4 Bft) 100 %
14.01.2017 22:00 -0,8 C -0,8 C -0,8 C 92 % 1014,9 hPa 0,1 l/m 7,9 km/h (2 Bft) W 261 0 min 0,000 mm 0 W/m -1,9 C -2,4 C 19,3 km/h (3 Bft) 99 %
14.01.2017 22:10 -0,9 C -0,9 C -0,8 C 92 % 1014,9 hPa 0,1 l/m 11,8 km/h (2 Bft) W-SW 249 0 min 0,000 mm 0 W/m -2,0 C -5,9 C 33,8 km/h (5 Bft) 100 %
14.01.2017 22:20 -0,9 C -0,9 C -0,8 C 92 % 1015,0 hPa 0,0 l/m 11,8 km/h (2 Bft) W-NW 300 0 min 0,000 mm 0 W/m -2,0 C -5,9 C 22,5 km/h (4 Bft) 100 %
14.01.2017 22:30 -0,8 C -0,9 C -0,8 C 92 % 1015,1 hPa 0,0 l/m 10,8 km/h (2 Bft) W-NW 284 0 min 0,000 mm 0 W/m -1,9 C -5,0 C 20,9 km/h (4 Bft) 99 %
14.01.2017 22:40 -0,8 C -0,8 C -0,8 C 92 % 1015,2 hPa 0,0 l/m 8,0 km/h (2 Bft) W 270 0 min 0,000 mm 0 W/m -1,9 C -2,5 C 20,9 km/h (4 Bft) 100 %
14.01.2017 22:50 -0,7 C -0,8 C -0,7 C 92 % 1015,3 hPa 0,0 l/m 8,0 km/h (2 Bft) W 270 0 min 0,000 mm 0 W/m -1,8 C -2,4 C 19,3 km/h (3 Bft) 100 %
14.01.2017 23:00 -0,6 C -0,7 C -0,6 C 92 % 1015,4 hPa 0,2 l/m 6,4 km/h (2 Bft) W 270 0 min 0,000 mm 0 W/m -1,7 C -0,6 C 24,1 km/h (4 Bft) 100 %
14.01.2017 23:10 -0,6 C -0,6 C -0,6 C 92 % 1015,5 hPa 0,0 l/m 11,3 km/h (2 Bft) W 270 0 min 0,000 mm 0 W/m -1,7 C -5,2 C 24,1 km/h (4 Bft) 100 %
14.01.2017 23:20 -0,6 C -0,6 C -0,6 C 92 % 1015,4 hPa 0,0 l/m 6,4 km/h (2 Bft) W 270 0 min 0,000 mm 0 W/m -1,7 C -0,6 C 17,7 km/h (3 Bft) 100 %
14.01.2017 23:30 -0,6 C -0,6 C -0,6 C 92 % 1015,4 hPa 0,0 l/m 4,8 km/h (1 Bft) W-SW 247 0 min 0,000 mm 0 W/m -1,7 C -0,6 C 16,1 km/h (3 Bft) 100 %
14.01.2017 23:40 -0,6 C -0,6 C -0,6 C 92 % 1015,4 hPa 0,0 l/m 3,2 km/h (1 Bft) SW 225 0 min 0,000 mm 0 W/m -1,7 C -0,6 C 9,7 km/h (2 Bft) 100 %
14.01.2017 23:50 -0,7 C -0,7 C -0,6 C 92 % 1015,6 hPa 0,0 l/m 4,8 km/h (1 Bft) SW 225 0 min 0,000 mm 0 W/m -1,8 C -0,7 C 16,1 km/h (3 Bft) 100 %
_ Min-Zeit 22:10 22:10 21:40 13:20 00:30 - 15:20 - - - - - 00:00 21:10 16:20 14:40
Minimum _ -0,9 C -0,9 C -0,8 C 81 % 1004,7 hPa - 0,9 km/h (0 Bft) - - - - - -2,3 C -7,4 C 6,4 km/h (2 Bft) 87 %
_ Max-Zeit 13:20 13:20 13:20 06:30 23:50 14:40 00:20 - - 10:40 14:00 13:10 14:20 14:20 00:30 00:00
Maximum _ 2,5 C 2,3 C 2,5 C 93 % 1015,6 hPa 0,4 l/m 14,5 km/h
SW (3 Bft)
- - 10 min 0,076 mm 394 W/m -0,0 C 1,6 C 33,8 km/h
S-SW (5 Bft)
100 %
Durchschnitt _ 0,4 C 0,4 C 0,5 C 89 % 1010,9 hPa #4,4 l/m 8,7 km/h (2 Bft) W - #1:10 h #0,356 mm 98 W/m -1,2 C -2,0 C 21,1 km/h (4 Bft) 99 %
PRIVATE WETTERSTATION BILLIGHEIM-ALLFELD - www.neckar-odenwald-wetter.de - Holger Sonntag